Regional Weather Roundup
Issued by NWS

Home | Current Version | Previous Version | Graphics & Text | Print | Product List | Glossary On
Versions: 1 2 3 4 5 6 7 8 9 10 11 12 13 14 15 16 17 18 19 20 21 22 23 24 25 26 27 28 29 30 31 32 33 34 35 36 37 38 39 40 41 42 43 44 45 46 47 48 49 50
000
ASUS43 KLMK 041702
RWRKY
KENTUCKY REGIONAL WEATHER ROUNDUP
NATIONAL WEATHER SERVICE LOUISVILLE KY
1200 PM EST WED MAR 04 2015

NOTE "FAIR" INDICATES FEW OR NO CLOUDS BELOW 12,000 FEET
WITH NO SIGNIFICANT WEATHER AND/OR OBSTRUCTIONS TO VISIBILITY.

KYZ001>023-026-027-061>063-070>075-041800-
WESTERN AND SOUTH CENTRAL KENTUCKY

CITY           SKY/WX    TMP DP  RH WIND       PRES   REMARKS
PADUCAH        LGT RAIN  34  31  88 N21G26    30.09R FOG     WCI  22
HENDERSON      CLOUDY    34  28  80 N12G17    30.09R WCI  25
OWENSBORO      RAIN      35  33  92 N12G17    30.07R FOG     WCI  27
HOPKINSVILLE   DRIZZLE   38  37  94 N13       30.00R WCI  31
BOWLING GREEN  LGT RAIN  44  41  89 N7        29.99R FOG
GLASGOW        NOT AVBL
$$

KYZ024-025-028>034-038-045-046-053-041800-
NORTH CENTRAL KENTUCKY

CITY           SKY/WX    TMP DP  RH WIND       PRES   REMARKS
LOUISVILLE/SDF RAIN      37  34  89 N13       30.03R FOG     WCI  29
LOUISVILLE/LOU LGT RAIN  36  34  92 N9        30.03R FOG     WCI  29
FORT KNOX      RAIN      38  36  94 NW8       30.00R WCI  32
$$

KYZ035>037-039>044-047>052-055>060-089>105-041800-
NORTHEAST KENTUCKY

CITY           SKY/WX    TMP DP  RH WIND       PRES   REMARKS
LEXINGTON      RAIN      39  37  92 N9        29.98S FOG     WCI  33
COVINGTON      CLOUDY    36  31  82 N7        30.00R WCI  30
FRANKFORT      LGT RAIN  38  35  89 N7        29.98R FOG     WCI  33
$$

KYZ054-064>069-076>088-106>120-041800-
SOUTHEAST KENTUCKY

CITY           SKY/WX    TMP DP  RH WIND       PRES   REMARKS
JACKSON        RAIN      50  49  96 CALM      29.91S VSB 1/4
LONDON         LGT RAIN  52  49  89 CALM      29.93R FOG
SOMERSET       NOT AVBL
MIDDLESBORO    DRIZZLE   50  50 100 CALM      29.92F
MONTICELLO     FOG       52  52 100 CALM      29.95S VSB 1
$$



USA.gov is the U.S. government's official web portal to all federal, state and local government web resources and services.